Location: Roswell
(33.3943°N, 104.5230°W)
Time: 13:05:44
(UTC+00:00)

Vanguard 2 Rocket - Pass Details

Date: 16 November 2024
Orbit: 554 x 3296 km, 32.9° (Epoch: 30 November)

Event Time Altitude Azimuth Distance (km) Brightness Sun altitude
Exits shadow 10:19:28 - 181° (S) 3,844 10.0 -39.9°
Reaches altitude 10° 10:20:33 10° 175° (S) 3,695 10.0 -39.7°
Maximum altitude 10:27:38 21° 130° (SE) 3,619 10.2 -38.2°
Drops below altitude 10° 10:37:28 10° 89° (E) 5,352 11.6 -36.1°
Sets 10:43:55 0° 77° (ENE) 6,800 12.3 -34.8°
